Time,TemperatureF,DewpointF,PressureIn,WindDirection,WindDirectionDegrees,WindSpeedMPH,WindSpeedGustMPH,Humidity,HourlyPrecipIn,Conditions,Clouds,dailyrainin,SolarRadiationWatts/m^2,SoftwareType,DateUTC
2013-01-27 00:00:00,13.6,0.1,29.94,NNW,330,0.0,5.0,54,0.00,,,0.00,0,WeatherCatV1.12B45,2013-01-27 05:00:00,
2013-01-27 00:05:00,13.6,0.5,29.94,NW,309,0.0,1.0,55,0.00,,,0.00,0,WeatherCatV1.12B45,2013-01-27 05:05:00,
2013-01-27 00:10:00,13.6,0.5,29.94,NNW,338,0.0,5.0,55,0.00,,,0.00,0,WeatherCatV1.12B45,2013-01-27 05:10:00,
2013-01-27 00:15:00,13.5,0.4,29.94,NNW,335,5.0,6.0,55,0.00,,,0.00,0,WeatherCatV1.12B45,2013-01-27 05:15:00,
2013-01-27 00:16:00,13.5,0.4,29.94,WSW,250,2.0,6.0,55,0.00,,,0.00,0,WeatherCatV1.12B45,2013-01-27 05:16:00,
2013-01-27 00:21:00,13.5,0.8,29.94,ENE,61,0.0,2.0,56,0.00,,,0.00,0,WeatherCatV1.12B45,2013-01-27 05:21:00,
2013-01-27 00:26:00,13.5,0.8,29.94,WSW,240,1.0,2.0,56,0.00,,,0.00,0,WeatherCatV1.12B45,2013-01-27 05:26:00,
2013-01-27 00:31:00,13.5,0.8,29.95,WNW,292,0.0,3.0,56,0.00,,,0.00,0,WeatherCatV1.12B45,2013-01-27 05:31:00,
2013-01-27 00:36:00,13.4,0.7,29.95,WNW,299,0.0,1.0,56,0.00,,,0.00,0,WeatherCatV1.12B45,2013-01-27 05:36:00,
2013-01-27 00:41:00,13.4,0.7,29.95,NNW,345,0.0,3.0,56,0.00,,,0.00,0,WeatherCatV1.12B45,2013-01-27 05:41:00,
2013-01-27 00:46:00,13.3,0.9,29.95,NW,307,1.0,5.0,57,0.00,,,0.00,0,WeatherCatV1.12B45,2013-01-27 05:46:00,
2013-01-27 00:51:00,13.3,0.9,29.95,South,190,0.0,4.0,57,0.00,,,0.00,0,WeatherCatV1.12B45,2013-01-27 05:51:00,
2013-01-27 00:56:00,13.3,0.9,29.95,NW,315,0.0,4.0,57,0.00,,,0.00,0,WeatherCatV1.12B45,2013-01-27 05:56:00,
2013-01-27 01:01:00,13.3,0.9,29.96,NW,325,1.0,3.0,57,0.00,,,0.00,0,WeatherCatV1.12B45,2013-01-27 06:01:00,
2013-01-27 01:06:00,13.2,0.9,29.96,WNW,298,0.0,2.0,57,0.00,,,0.00,0,WeatherCatV1.12B45,2013-01-27 06:06:00,
2013-01-27 01:11:00,13.2,1.2,29.96,NNW,344,0.0,2.0,58,0.00,,,0.00,0,WeatherCatV1.12B45,2013-01-27 06:11:00,
2013-01-27 01:16:00,13.2,1.2,29.96,NW,318,0.0,1.0,58,0.00,,,0.00,0,WeatherCatV1.12B45,2013-01-27 06:16:00,
2013-01-27 01:21:00,13.1,1.1,29.97,West,273,0.0,5.0,58,0.00,,,0.00,0,WeatherCatV1.12B45,2013-01-27 06:21:00,
2013-01-27 01:26:00,13.1,1.1,29.97,NW,313,3.0,3.0,58,0.00,,,0.00,0,WeatherCatV1.12B45,2013-01-27 06:26:00,
2013-01-27 01:31:00,13.0,1.0,29.97,WNW,284,0.0,2.0,58,0.00,,,0.00,0,WeatherCatV1.12B45,2013-01-27 06:31:00,
2013-01-27 01:36:00,13.0,1.0,29.97,NW,309,0.0,1.0,58,0.00,,,0.00,0,WeatherCatV1.12B45,2013-01-27 06:36:00,
2013-01-27 01:41:00,13.0,1.4,29.97,NNW,327,2.0,2.0,59,0.00,,,0.00,0,WeatherCatV1.12B45,2013-01-27 06:41:00,
2013-01-27 01:46:00,13.0,1.4,29.97,SW,223,2.0,5.0,59,0.00,,,0.00,0,WeatherCatV1.12B45,2013-01-27 06:46:00,
2013-01-27 01:51:00,13.0,1.4,29.97,NW,309,0.0,3.0,59,0.00,,,0.00,0,WeatherCatV1.12B45,2013-01-27 06:51:00,
2013-01-27 01:56:00,13.0,1.4,29.98,NNW,331,1.0,1.0,59,0.00,,,0.00,0,WeatherCatV1.12B45,2013-01-27 06:56:00,
2013-01-27 02:01:00,13.0,1.4,29.98,NNW,327,2.0,2.0,59,0.00,,,0.00,0,WeatherCatV1.12B45,2013-01-27 07:01:00,
2013-01-27 02:06:00,12.9,1.3,29.98,NW,306,0.0,1.0,59,0.00,,,0.00,0,WeatherCatV1.12B45,2013-01-27 07:06:00,
2013-01-27 02:13:00,13.0,1.4,29.98,NW,311,0.0,2.0,59,0.00,,,0.00,0,WeatherCatV1.12B45,2013-01-27 07:13:00,
2013-01-27 02:18:00,12.9,1.3,29.98,NW,306,0.0,2.0,59,0.00,,,0.00,0,WeatherCatV1.12B45,2013-01-27 07:18:00,
2013-01-27 02:23:00,12.8,1.6,29.98,NW,324,0.0,2.0,60,0.00,,,0.00,0,WeatherCatV1.12B45,2013-01-27 07:23:00,
2013-01-27 02:28:00,12.8,1.6,29.98,WSW,252,1.0,1.0,60,0.00,,,0.00,0,WeatherCatV1.12B45,2013-01-27 07:28:00,
2013-01-27 02:33:00,12.8,1.6,29.98,NW,306,0.0,4.0,60,0.00,,,0.00,0,WeatherCatV1.12B45,2013-01-27 07:33:00,
2013-01-27 02:38:00,12.8,1.6,29.99,WSW,242,0.0,2.0,60,0.00,,,0.00,0,WeatherCatV1.12B45,2013-01-27 07:38:00,
2013-01-27 02:43:00,12.8,1.6,29.99,WSW,241,0.0,1.0,60,0.00,,,0.00,0,WeatherCatV1.12B45,2013-01-27 07:43:00,
2013-01-27 02:48:00,12.8,1.9,29.99,NW,311,0.0,2.0,61,0.00,,,0.00,0,WeatherCatV1.12B45,2013-01-27 07:48:00,
2013-01-27 02:53:00,12.8,1.9,29.99,NW,317,0.0,2.0,61,0.00,,,0.00,0,WeatherCatV1.12B45,2013-01-27 07:53:00,
2013-01-27 02:58:00,12.8,1.9,29.99,WSW,241,0.0,2.0,61,0.00,,,0.00,0,WeatherCatV1.12B45,2013-01-27 07:58:00,
2013-01-27 03:03:00,12.7,1.8,29.99,West,268,1.0,4.0,61,0.00,,,0.00,0,WeatherCatV1.12B45,2013-01-27 08:03:00,
2013-01-27 03:08:00,12.7,1.8,29.99,WNW,287,0.0,2.0,61,0.00,,,0.00,0,WeatherCatV1.12B45,2013-01-27 08:08:00,
2013-01-27 03:13:00,12.7,1.8,29.99,NW,326,0.0,3.0,61,0.00,,,0.00,0,WeatherCatV1.12B45,2013-01-27 08:13:00,
2013-01-27 03:18:00,12.7,1.8,29.99,West,274,1.0,3.0,61,0.00,,,0.00,0,WeatherCatV1.12B45,2013-01-27 08:18:00,
2013-01-27 03:23:00,12.8,1.9,29.99,NW,326,0.0,2.0,61,0.00,,,0.00,0,WeatherCatV1.12B45,2013-01-27 08:23:00,
2013-01-27 03:28:00,12.7,1.8,30.00,NW,314,0.0,2.0,61,0.00,,,0.00,0,WeatherCatV1.12B45,2013-01-27 08:28:00,
2013-01-27 03:33:00,12.7,1.8,30.00,NW,321,0.0,2.0,61,0.00,,,0.00,0,WeatherCatV1.12B45,2013-01-27 08:33:00,
2013-01-27 03:38:00,12.7,1.8,29.99,West,279,0.0,1.0,61,0.00,,,0.00,0,WeatherCatV1.12B45,2013-01-27 08:38:00,
2013-01-27 03:43:00,12.8,1.9,30.00,NW,316,0.0,4.0,61,0.00,,,0.00,0,WeatherCatV1.12B45,2013-01-27 08:43:00,
2013-01-27 03:48:00,12.7,1.8,30.00,West,279,1.0,3.0,61,0.00,,,0.00,0,WeatherCatV1.12B45,2013-01-27 08:48:00,
2013-01-27 03:53:00,12.8,1.9,30.00,WNW,287,0.0,2.0,61,0.00,,,0.00,0,WeatherCatV1.12B45,2013-01-27 08:53:00,
2013-01-27 03:58:00,12.8,1.9,30.00,NW,326,0.0,1.0,61,0.00,,,0.00,0,WeatherCatV1.12B45,2013-01-27 08:58:00,
2013-01-27 04:03:00,12.8,1.9,30.00,WNW,303,0.0,4.0,61,0.00,,,0.00,0,WeatherCatV1.12B45,2013-01-27 09:03:00,
2013-01-27 04:08:00,12.8,1.9,30.00,NW,310,0.0,2.0,61,0.00,,,0.00,0,WeatherCatV1.12B45,2013-01-27 09:08:00,
2013-01-27 04:13:00,12.8,2.3,30.00,NW,306,1.0,4.0,62,0.00,,,0.00,0,WeatherCatV1.12B45,2013-01-27 09:13:00,
2013-01-27 04:18:00,12.8,2.3,30.00,West,274,1.0,1.0,62,0.00,,,0.00,0,WeatherCatV1.12B45,2013-01-27 09:18:00,
2013-01-27 04:23:00,12.8,2.3,30.00,NE,40,1.0,2.0,62,0.00,,,0.00,0,WeatherCatV1.12B45,2013-01-27 09:23:00,
2013-01-27 04:28:00,12.9,2.4,30.00,WSW,251,0.0,3.0,62,0.00,,,0.00,0,WeatherCatV1.12B45,2013-01-27 09:28:00,
2013-01-27 04:33:00,12.9,2.4,30.00,NE,51,0.0,2.0,62,0.00,,,0.00,0,WeatherCatV1.12B45,2013-01-27 09:33:00,
2013-01-27 04:38:00,12.9,2.4,30.01,West,281,0.0,3.0,62,0.00,,,0.00,0,WeatherCatV1.12B45,2013-01-27 09:38:00,
2013-01-27 04:43:00,13.0,2.5,30.01,SSW,196,0.0,1.0,62,0.00,,,0.00,0,WeatherCatV1.12B45,2013-01-27 09:43:00,
2013-01-27 04:48:00,12.9,2.4,30.01,WNW,303,0.0,1.0,62,0.00,,,0.00,0,WeatherCatV1.12B45,2013-01-27 09:48:00,
2013-01-27 04:53:00,12.9,2.4,30.00,North,355,0.0,3.0,62,0.00,,,0.00,0,WeatherCatV1.12B45,2013-01-27 09:53:00,
2013-01-27 04:58:00,12.9,2.4,30.01,West,269,1.0,6.0,62,0.00,,,0.00,0,WeatherCatV1.12B45,2013-01-27 09:58:00,
2013-01-27 05:03:00,13.0,2.5,30.01,WNW,296,0.0,3.0,62,0.00,,,0.00,0,WeatherCatV1.12B45,2013-01-27 10:03:00,
2013-01-27 05:08:00,12.9,2.4,30.01,South,184,0.0,1.0,62,0.00,,,0.00,0,WeatherCatV1.12B45,2013-01-27 10:08:00,
2013-01-27 05:13:00,12.9,2.4,30.01,NW,315,0.0,1.0,62,0.00,,,0.00,0,WeatherCatV1.12B45,2013-01-27 10:13:00,
2013-01-27 05:18:00,12.8,2.3,30.01,NW,313,1.0,1.0,62,0.00,,,0.00,0,WeatherCatV1.12B45,2013-01-27 10:18:00,
2013-01-27 05:23:00,12.7,2.2,30.01,WNW,292,1.0,2.0,62,0.00,,,0.00,0,WeatherCatV1.12B45,2013-01-27 10:23:00,
2013-01-27 05:28:00,12.5,2.0,30.01,NW,318,0.0,1.0,62,0.00,,,0.00,0,WeatherCatV1.12B45,2013-01-27 10:28:00,
2013-01-27 05:33:00,12.4,1.9,30.01,NW,305,0.0,1.0,62,0.00,,,0.00,0,WeatherCatV1.12B45,2013-01-27 10:33:00,
2013-01-27 05:38:00,12.3,1.8,30.02,West,266,1.0,4.0,62,0.00,,,0.00,0,WeatherCatV1.12B45,2013-01-27 10:38:00,
2013-01-27 05:43:00,12.2,1.7,30.02,NW,309,1.0,1.0,62,0.00,,,0.00,0,WeatherCatV1.12B45,2013-01-27 10:43:00,
2013-01-27 05:48:00,12.1,2.0,30.02,West,279,0.0,4.0,63,0.00,,,0.00,0,WeatherCatV1.12B45,2013-01-27 10:48:00,
2013-01-27 05:53:00,12.0,1.9,30.02,WNW,295,1.0,2.0,63,0.00,,,0.00,0,WeatherCatV1.12B45,2013-01-27 10:53:00,
2013-01-27 05:58:00,11.9,1.8,30.02,NW,323,3.0,4.0,63,0.00,,,0.00,0,WeatherCatV1.12B45,2013-01-27 10:58:00,
2013-01-27 06:03:00,11.8,1.7,30.03,WNW,290,0.0,1.0,63,0.00,,,0.00,0,WeatherCatV1.12B45,2013-01-27 11:03:00,
2013-01-27 06:08:00,11.8,1.7,30.02,SSW,213,0.0,2.0,63,0.00,,,0.00,0,WeatherCatV1.12B45,2013-01-27 11:08:00,
2013-01-27 06:13:00,11.7,1.6,30.02,WSW,250,1.0,1.0,63,0.00,,,0.00,0,WeatherCatV1.12B45,2013-01-27 11:13:00,
2013-01-27 06:18:00,11.6,1.5,30.02,West,260,0.0,2.0,63,0.00,,,0.00,0,WeatherCatV1.12B45,2013-01-27 11:18:00,
2013-01-27 06:23:00,11.6,1.5,30.03,WNW,301,0.0,2.0,63,0.00,,,0.00,0,WeatherCatV1.12B45,2013-01-27 11:23:00,
2013-01-27 06:28:00,11.6,1.5,30.03,West,261,1.0,3.0,63,0.00,,,0.00,0,WeatherCatV1.12B45,2013-01-27 11:28:00,
2013-01-27 06:33:00,11.6,1.8,30.03,NNW,329,0.0,1.0,64,0.00,,,0.00,0,WeatherCatV1.12B45,2013-01-27 11:33:00,
2013-01-27 06:38:00,11.6,1.8,30.03,WNW,296,0.0,1.0,64,0.00,,,0.00,0,WeatherCatV1.12B45,2013-01-27 11:38:00,
2013-01-27 06:43:00,11.6,1.8,30.04,West,268,1.0,1.0,64,0.00,,,0.00,0,WeatherCatV1.12B45,2013-01-27 11:43:00,
2013-01-27 06:48:00,11.6,1.8,30.04,NW,321,1.0,2.0,64,0.00,,,0.00,0,WeatherCatV1.12B45,2013-01-27 11:48:00,
2013-01-27 06:53:00,11.6,1.8,30.04,NW,315,0.0,1.0,64,0.00,,,0.00,0,WeatherCatV1.12B45,2013-01-27 11:53:00,
2013-01-27 06:58:00,11.6,1.8,30.04,NW,306,0.0,2.0,64,0.00,,,0.00,0,WeatherCatV1.12B45,2013-01-27 11:58:00,
2013-01-27 07:03:00,11.7,1.9,30.04,West,280,0.0,1.0,64,0.00,,,0.00,0,WeatherCatV1.12B45,2013-01-27 12:03:00,
2013-01-27 07:08:00,11.7,1.9,30.04,WNW,284,0.0,3.0,64,0.00,,,0.00,5,WeatherCatV1.12B45,2013-01-27 12:08:00,
2013-01-27 07:13:00,11.7,1.9,30.05,NW,318,3.0,3.0,64,0.00,,,0.00,7,WeatherCatV1.12B45,2013-01-27 12:13:00,
2013-01-27 07:18:00,11.7,1.9,30.05,West,273,1.0,2.0,64,0.00,,,0.00,9,WeatherCatV1.12B45,2013-01-27 12:18:00,
2013-01-27 07:23:00,11.7,1.6,30.05,West,263,0.0,3.0,63,0.00,,,0.00,12,WeatherCatV1.12B45,2013-01-27 12:23:00,
2013-01-27 07:28:00,11.8,1.7,30.05,WSW,253,0.0,0.0,63,0.00,,,0.00,16,WeatherCatV1.12B45,2013-01-27 12:28:00,
2013-01-27 07:33:00,11.9,2.1,30.06,WSW,244,0.0,5.0,64,0.00,,,0.00,18,WeatherCatV1.12B45,2013-01-27 12:33:00,
2013-01-27 07:38:00,11.9,2.1,30.06,NW,311,2.0,3.0,64,0.00,,,0.00,23,WeatherCatV1.12B45,2013-01-27 12:38:00,
2013-01-27 07:43:00,12.1,2.3,30.06,South,191,0.0,10.0,64,0.00,,,0.00,26,WeatherCatV1.12B45,2013-01-27 12:43:00,
2013-01-27 07:48:00,12.2,2.4,30.06,NW,304,0.0,3.0,64,0.00,,,0.00,28,WeatherCatV1.12B45,2013-01-27 12:48:00,
2013-01-27 07:53:00,12.4,2.6,30.07,SSW,211,0.0,2.0,64,0.00,,,0.00,30,WeatherCatV1.12B45,2013-01-27 12:53:00,
2013-01-27 07:58:00,12.6,2.8,30.07,SW,236,0.0,2.0,64,0.00,,,0.00,33,WeatherCatV1.12B45,2013-01-27 12:58:00,
2013-01-27 08:03:00,12.8,3.0,30.07,NNW,344,0.0,3.0,64,0.00,,,0.00,69,WeatherCatV1.12B45,2013-01-27 13:03:00,
2013-01-27 08:08:00,13.2,3.0,30.07,NW,317,1.0,3.0,63,0.00,,,0.00,107,WeatherCatV1.12B45,2013-01-27 13:08:00,
2013-01-27 08:13:00,13.5,3.3,30.07,NW,315,0.0,3.0,63,0.00,,,0.00,104,WeatherCatV1.12B45,2013-01-27 13:13:00,
2013-01-27 08:18:00,13.9,3.3,30.08,NW,326,0.0,3.0,62,0.00,,,0.00,190,WeatherCatV1.12B45,2013-01-27 13:18:00,
2013-01-27 08:23:00,14.4,3.8,30.08,WNW,300,0.0,2.0,62,0.00,,,0.00,248,WeatherCatV1.12B45,2013-01-27 13:23:00,
2013-01-27 08:28:00,15.0,4.0,30.08,NW,308,1.0,4.0,61,0.00,,,0.00,236,WeatherCatV1.12B45,2013-01-27 13:28:00,
2013-01-27 08:33:00,15.6,4.2,30.08,West,274,0.0,5.0,60,0.00,,,0.00,258,WeatherCatV1.12B45,2013-01-27 13:33:00,
2013-01-27 08:38:00,16.2,4.4,30.08,WSW,249,1.0,2.0,59,0.00,,,0.00,279,WeatherCatV1.12B45,2013-01-27 13:38:00,
2013-01-27 08:43:00,16.8,4.6,30.08,NNW,330,1.0,6.0,58,0.00,,,0.00,264,WeatherCatV1.12B45,2013-01-27 13:43:00,
2013-01-27 08:48:00,17.3,4.7,30.09,WNW,298,7.0,7.0,57,0.00,,,0.00,264,WeatherCatV1.12B45,2013-01-27 13:48:00,
2013-01-27 08:53:00,17.7,4.3,30.09,SW,234,2.0,6.0,55,0.00,,,0.00,269,WeatherCatV1.12B45,2013-01-27 13:53:00,
2013-01-27 08:58:00,18.0,4.2,30.09,WSW,247,2.0,7.0,54,0.00,,,0.00,278,WeatherCatV1.12B45,2013-01-27 13:58:00,
2013-01-27 09:03:00,18.3,4.5,30.09,NW,304,0.0,2.0,54,0.00,,,0.00,348,WeatherCatV1.12B45,2013-01-27 14:03:00,
2013-01-27 09:08:00,18.6,3.9,30.09,SW,225,1.0,4.0,52,0.00,,,0.00,336,WeatherCatV1.12B45,2013-01-27 14:08:00,
2013-01-27 09:13:00,18.9,3.8,30.09,NNW,331,1.0,6.0,51,0.00,,,0.00,385,WeatherCatV1.12B45,2013-01-27 14:13:00,
2013-01-27 09:18:00,19.3,4.2,30.09,WNW,283,2.0,4.0,51,0.00,,,0.00,401,WeatherCatV1.12B45,2013-01-27 14:18:00,
2013-01-27 09:23:00,19.7,4.1,30.09,West,281,0.0,6.0,50,0.00,,,0.00,413,WeatherCatV1.12B45,2013-01-27 14:23:00,
2013-01-27 09:28:00,20.3,4.7,30.09,WSW,248,0.0,3.0,50,0.00,,,0.00,424,WeatherCatV1.12B45,2013-01-27 14:28:00,
2013-01-27 09:33:00,20.9,4.3,30.09,NNW,344,1.0,3.0,48,0.00,,,0.00,434,WeatherCatV1.12B45,2013-01-27 14:33:00,
2013-01-27 09:38:00,21.4,4.3,30.10,SW,214,1.0,4.0,47,0.00,,,0.00,445,WeatherCatV1.12B45,2013-01-27 14:38:00,
2013-01-27 09:43:00,21.8,4.2,30.10,WSW,241,1.0,3.0,46,0.00,,,0.00,455,WeatherCatV1.12B45,2013-01-27 14:43:00,
2013-01-27 09:48:00,22.3,4.7,30.10,WSW,257,1.0,3.0,46,0.00,,,0.00,464,WeatherCatV1.12B45,2013-01-27 14:48:00,
2013-01-27 09:53:00,22.8,4.7,30.11,WNW,296,2.0,5.0,45,0.00,,,0.00,471,WeatherCatV1.12B45,2013-01-27 14:53:00,
2013-01-27 09:58:00,23.2,4.6,30.11,NW,304,2.0,3.0,44,0.00,,,0.00,485,WeatherCatV1.12B45,2013-01-27 14:58:00,
2013-01-27 10:03:00,23.6,4.4,30.11,NW,319,1.0,6.0,43,0.00,,,0.00,492,WeatherCatV1.12B45,2013-01-27 15:03:00,
2013-01-27 10:08:00,23.9,4.7,30.11,West,259,1.0,5.0,43,0.00,,,0.00,499,WeatherCatV1.12B45,2013-01-27 15:08:00,
2013-01-27 10:13:00,24.2,5.0,30.11,North,5,2.0,2.0,43,0.00,,,0.00,508,WeatherCatV1.12B45,2013-01-27 15:13:00,
2013-01-27 10:18:00,24.5,4.7,30.11,NW,320,2.0,4.0,42,0.00,,,0.00,515,WeatherCatV1.12B45,2013-01-27 15:18:00,
2013-01-27 10:23:00,24.8,4.5,30.11,NNW,336,6.0,6.0,41,0.00,,,0.00,522,WeatherCatV1.12B45,2013-01-27 15:23:00,
2013-01-27 10:28:00,25.0,4.1,30.11,WSW,237,2.0,7.0,40,0.00,,,0.00,529,WeatherCatV1.12B45,2013-01-27 15:28:00,
2013-01-27 10:33:00,25.2,3.8,30.11,NW,318,1.0,15.0,39,0.00,,,0.00,534,WeatherCatV1.12B45,2013-01-27 15:33:00,
2013-01-27 10:38:00,25.4,3.9,30.11,NW,321,6.0,13.0,39,0.00,,,0.00,538,WeatherCatV1.12B45,2013-01-27 15:38:00,
2013-01-27 10:43:00,25.5,4.0,30.11,NW,308,1.0,5.0,39,0.00,,,0.00,547,WeatherCatV1.12B45,2013-01-27 15:43:00,
2013-01-27 10:48:00,25.8,4.3,30.11,NW,310,6.0,6.0,39,0.00,,,0.00,550,WeatherCatV1.12B45,2013-01-27 15:48:00,
2013-01-27 10:53:00,26.1,4.6,30.11,WSW,240,1.0,7.0,39,0.00,,,0.00,555,WeatherCatV1.12B45,2013-01-27 15:53:00,
2013-01-27 10:58:00,26.4,4.3,30.11,SW,234,1.0,5.0,38,0.00,,,0.00,559,WeatherCatV1.12B45,2013-01-27 15:58:00,
2013-01-27 11:03:00,26.3,4.2,30.11,NW,310,3.0,5.0,38,0.00,,,0.00,563,WeatherCatV1.12B45,2013-01-27 16:03:00,
2013-01-27 11:08:00,26.5,4.4,30.11,ESE,107,2.0,4.0,38,0.00,,,0.00,355,WeatherCatV1.12B45,2013-01-27 16:08:00,
2013-01-27 11:13:00,26.6,4.5,30.11,WNW,283,2.0,6.0,38,0.00,,,0.00,570,WeatherCatV1.12B45,2013-01-27 16:13:00,
2013-01-27 11:18:00,26.7,4.0,30.10,NNW,333,3.0,10.0,37,0.00,,,0.00,533,WeatherCatV1.12B45,2013-01-27 16:18:00,
2013-01-27 11:23:00,26.9,4.1,30.11,NW,324,1.0,13.0,37,0.00,,,0.00,459,WeatherCatV1.12B45,2013-01-27 16:23:00,
2013-01-27 11:28:00,27.2,5.0,30.11,NW,307,5.0,6.0,38,0.00,,,0.00,575,WeatherCatV1.12B45,2013-01-27 16:28:00,
2013-01-27 11:33:00,27.4,4.6,30.11,NNW,332,2.0,7.0,37,0.00,,,0.00,575,WeatherCatV1.12B45,2013-01-27 16:33:00,
2013-01-27 11:38:00,27.6,4.8,30.11,NNW,333,1.0,5.0,37,0.00,,,0.00,577,WeatherCatV1.12B45,2013-01-27 16:38:00,
2013-01-27 11:43:00,27.8,5.0,30.11,NW,319,14.0,14.0,37,0.00,,,0.00,578,WeatherCatV1.12B45,2013-01-27 16:43:00,
2013-01-27 11:48:00,28.0,5.1,30.10,NW,315,3.0,6.0,37,0.00,,,0.00,578,WeatherCatV1.12B45,2013-01-27 16:48:00,
2013-01-27 11:53:00,28.2,5.3,30.10,NW,323,9.0,9.0,37,0.00,,,0.00,429,WeatherCatV1.12B45,2013-01-27 16:53:00,
2013-01-27 11:58:00,28.3,4.8,30.10,WNW,292,0.0,7.0,36,0.00,,,0.00,580,WeatherCatV1.12B45,2013-01-27 16:58:00,
2013-01-27 12:03:00,28.2,4.7,30.10,West,281,2.0,6.0,36,0.00,,,0.00,506,WeatherCatV1.12B45,2013-01-27 17:03:00,
2013-01-27 12:08:00,28.2,4.1,30.10,West,260,4.0,11.0,35,0.00,,,0.00,577,WeatherCatV1.12B45,2013-01-27 17:08:00,
2013-01-27 12:13:00,28.2,4.7,30.10,NNW,334,1.0,6.0,36,0.00,,,0.00,255,WeatherCatV1.12B45,2013-01-27 17:13:00,
2013-01-27 12:18:00,28.3,4.8,30.09,ENE,71,1.0,7.0,36,0.00,,,0.00,120,WeatherCatV1.12B45,2013-01-27 17:18:00,
2013-01-27 12:23:00,28.2,4.7,30.10,NNW,346,0.0,5.0,36,0.00,,,0.00,118,WeatherCatV1.12B45,2013-01-27 17:23:00,
2013-01-27 12:28:00,28.1,4.0,30.10,West,281,2.0,5.0,35,0.00,,,0.00,265,WeatherCatV1.12B45,2013-01-27 17:28:00,
2013-01-27 12:33:00,28.2,4.7,30.10,NNW,337,1.0,6.0,36,0.00,,,0.00,482,WeatherCatV1.12B45,2013-01-27 17:33:00,
2013-01-27 12:38:00,28.4,6.1,30.09,NW,314,2.0,14.0,38,0.00,,,0.00,322,WeatherCatV1.12B45,2013-01-27 17:38:00,
2013-01-27 12:43:00,28.6,4.5,30.09,East,81,2.0,7.0,35,0.00,,,0.00,548,WeatherCatV1.12B45,2013-01-27 17:43:00,
2013-01-27 12:48:00,28.7,4.5,30.09,NW,306,0.0,2.0,35,0.00,,,0.00,541,WeatherCatV1.12B45,2013-01-27 17:48:00,
2013-01-27 12:53:00,28.8,4.0,30.09,NNW,341,0.0,5.0,34,0.00,,,0.00,533,WeatherCatV1.12B45,2013-01-27 17:53:00,
2013-01-27 12:58:00,29.1,4.9,30.09,SE,136,1.0,4.0,35,0.00,,,0.00,526,WeatherCatV1.12B45,2013-01-27 17:58:00,
2013-01-27 13:03:00,29.3,4.5,30.09,NW,314,2.0,4.0,34,0.00,,,0.00,520,WeatherCatV1.12B45,2013-01-27 18:03:00,
2013-01-27 13:08:00,29.7,4.8,30.09,NW,306,0.0,4.0,34,0.00,,,0.00,512,WeatherCatV1.12B45,2013-01-27 18:08:00,
2013-01-27 13:13:00,29.9,5.0,30.09,NW,319,1.0,4.0,34,0.00,,,0.00,503,WeatherCatV1.12B45,2013-01-27 18:13:00,
2013-01-27 13:18:00,30.3,4.7,30.09,NW,304,2.0,6.0,33,0.00,,,0.00,496,WeatherCatV1.12B45,2013-01-27 18:18:00,
2013-01-27 13:23:00,30.4,4.8,30.09,NW,323,2.0,6.0,33,0.00,,,0.00,483,WeatherCatV1.12B45,2013-01-27 18:23:00,
2013-01-27 13:28:00,30.7,5.0,30.09,NNW,341,1.0,6.0,33,0.00,,,0.00,478,WeatherCatV1.12B45,2013-01-27 18:28:00,
2013-01-27 13:33:00,30.7,4.4,30.09,NW,318,2.0,8.0,32,0.00,,,0.00,469,WeatherCatV1.12B45,2013-01-27 18:33:00,
2013-01-27 13:38:00,30.6,4.3,30.09,NW,320,3.0,7.0,32,0.00,,,0.00,461,WeatherCatV1.12B45,2013-01-27 18:38:00,
2013-01-27 13:43:00,30.6,4.3,30.09,South,186,1.0,9.0,32,0.00,,,0.00,450,WeatherCatV1.12B45,2013-01-27 18:43:00,
2013-01-27 13:48:00,30.6,4.3,30.09,WSW,246,4.0,7.0,32,0.00,,,0.00,439,WeatherCatV1.12B45,2013-01-27 18:48:00,
2013-01-27 13:53:00,30.6,3.6,30.08,WNW,294,1.0,9.0,31,0.00,,,0.00,432,WeatherCatV1.12B45,2013-01-27 18:53:00,
2013-01-27 13:58:00,30.6,4.3,30.08,WSW,244,1.0,3.0,32,0.00,,,0.00,420,WeatherCatV1.12B45,2013-01-27 18:58:00,
2013-01-27 14:03:00,30.6,4.3,30.08,NNW,342,2.0,9.0,32,0.00,,,0.00,410,WeatherCatV1.12B45,2013-01-27 19:03:00,
2013-01-27 14:08:00,30.5,4.2,30.08,NW,306,1.0,5.0,32,0.00,,,0.00,397,WeatherCatV1.12B45,2013-01-27 19:08:00,
2013-01-27 14:13:00,30.5,4.9,30.08,NW,322,3.0,3.0,33,0.00,,,0.00,387,WeatherCatV1.12B45,2013-01-27 19:13:00,
2013-01-27 14:18:00,30.5,4.2,30.09,West,263,3.0,11.0,32,0.00,,,0.00,39,WeatherCatV1.12B45,2013-01-27 19:18:00,
2013-01-27 14:23:00,30.3,4.0,30.09,NW,325,3.0,3.0,32,0.00,,,0.00,37,WeatherCatV1.12B45,2013-01-27 19:23:00,
2013-01-27 14:28:00,30.2,3.9,30.09,WNW,292,0.0,13.0,32,0.00,,,0.00,37,WeatherCatV1.12B45,2013-01-27 19:28:00,
2013-01-27 14:33:00,30.1,3.8,30.09,WNW,302,0.0,3.0,32,0.00,,,0.00,35,WeatherCatV1.12B45,2013-01-27 19:33:00,
2013-01-27 14:38:00,30.1,3.8,30.08,NW,313,0.0,4.0,32,0.00,,,0.00,35,WeatherCatV1.12B45,2013-01-27 19:38:00,
2013-01-27 14:43:00,30.0,3.8,30.09,SW,236,0.0,2.0,32,0.00,,,0.00,35,WeatherCatV1.12B45,2013-01-27 19:43:00,
2013-01-27 14:48:00,30.0,4.4,30.09,WNW,293,0.0,4.0,33,0.00,,,0.00,33,WeatherCatV1.12B45,2013-01-27 19:48:00,
2013-01-27 14:53:00,29.9,3.7,30.08,NW,318,0.0,3.0,32,0.00,,,0.00,33,WeatherCatV1.12B45,2013-01-27 19:53:00,
2013-01-27 14:58:00,29.8,4.2,30.09,SSE,150,0.0,7.0,33,0.00,,,0.00,32,WeatherCatV1.12B45,2013-01-27 19:58:00,
2013-01-27 15:03:00,29.9,4.3,30.09,SSW,206,0.0,4.0,33,0.00,,,0.00,32,WeatherCatV1.12B45,2013-01-27 20:03:00,
2013-01-27 15:08:00,29.8,4.2,30.08,ESE,123,2.0,3.0,33,0.00,,,0.00,30,WeatherCatV1.12B45,2013-01-27 20:08:00,
2013-01-27 15:13:00,29.7,4.2,30.08,SSW,207,2.0,9.0,33,0.00,,,0.00,30,WeatherCatV1.12B45,2013-01-27 20:13:00,
2013-01-27 15:18:00,29.6,4.1,30.08,NW,319,3.0,9.0,33,0.00,,,0.00,30,WeatherCatV1.12B45,2013-01-27 20:18:00,
2013-01-27 15:23:00,29.5,4.0,30.08,South,182,1.0,4.0,33,0.00,,,0.00,28,WeatherCatV1.12B45,2013-01-27 20:23:00,
2013-01-27 15:28:00,29.4,3.9,30.08,NNE,17,1.0,1.0,33,0.00,,,0.00,26,WeatherCatV1.12B45,2013-01-27 20:28:00,
2013-01-27 15:33:00,29.2,3.7,30.08,NW,313,0.0,5.0,33,0.00,,,0.00,26,WeatherCatV1.12B45,2013-01-27 20:33:00,
2013-01-27 15:38:00,29.2,3.7,30.08,NNW,340,1.0,5.0,33,0.00,,,0.00,25,WeatherCatV1.12B45,2013-01-27 20:38:00,
2013-01-27 15:43:00,29.0,3.5,30.09,SSW,197,0.0,2.0,33,0.00,,,0.00,25,WeatherCatV1.12B45,2013-01-27 20:43:00,
2013-01-27 15:48:00,28.9,3.5,30.08,West,277,1.0,7.0,33,0.00,,,0.00,23,WeatherCatV1.12B45,2013-01-27 20:48:00,
2013-01-27 15:53:00,28.8,3.4,30.09,NW,323,6.0,6.0,33,0.00,,,0.00,21,WeatherCatV1.12B45,2013-01-27 20:53:00,
2013-01-27 15:58:00,28.7,3.3,30.08,NNW,344,1.0,5.0,33,0.00,,,0.00,21,WeatherCatV1.12B45,2013-01-27 20:58:00,
2013-01-27 16:03:00,28.6,3.2,30.08,WNW,296,5.0,6.0,33,0.00,,,0.00,19,WeatherCatV1.12B45,2013-01-27 21:03:00,
2013-01-27 16:08:00,28.5,3.1,30.09,NW,307,2.0,6.0,33,0.00,,,0.00,18,WeatherCatV1.12B45,2013-01-27 21:08:00,
2013-01-27 16:13:00,28.3,2.9,30.09,WNW,283,4.0,4.0,33,0.00,,,0.00,16,WeatherCatV1.12B45,2013-01-27 21:13:00,
2013-01-27 16:18:00,28.1,2.7,30.09,NW,322,0.0,2.0,33,0.00,,,0.00,14,WeatherCatV1.12B45,2013-01-27 21:18:00,
2013-01-27 16:23:00,28.0,2.7,30.09,WSW,256,0.0,3.0,33,0.00,,,0.00,12,WeatherCatV1.12B45,2013-01-27 21:23:00,
2013-01-27 16:28:00,27.9,2.6,30.10,NNW,328,0.0,4.0,33,0.00,,,0.00,11,WeatherCatV1.12B45,2013-01-27 21:28:00,
2013-01-27 16:33:00,27.8,2.5,30.10,West,281,0.0,2.0,33,0.00,,,0.00,9,WeatherCatV1.12B45,2013-01-27 21:33:00,
2013-01-27 16:38:00,27.6,2.3,30.11,NW,311,0.0,5.0,33,0.00,,,0.00,7,WeatherCatV1.12B45,2013-01-27 21:38:00,
2013-01-27 16:43:00,27.5,2.2,30.11,NNW,330,0.0,2.0,33,0.00,,,0.00,5,WeatherCatV1.12B45,2013-01-27 21:43:00,
2013-01-27 16:48:00,27.3,2.0,30.11,NW,309,2.0,2.0,33,0.00,,,0.00,0,WeatherCatV1.12B45,2013-01-27 21:48:00,
2013-01-27 16:53:00,27.1,1.9,30.11,NW,307,0.0,3.0,33,0.00,,,0.00,0,WeatherCatV1.12B45,2013-01-27 21:53:00,
2013-01-27 16:58:00,27.0,1.8,30.12,NNW,340,0.0,3.0,33,0.00,,,0.00,0,WeatherCatV1.12B45,2013-01-27 21:58:00,
2013-01-27 17:03:00,26.8,1.6,30.11,NW,312,1.0,3.0,33,0.00,,,0.00,0,WeatherCatV1.12B45,2013-01-27 22:03:00,
2013-01-27 17:08:00,26.7,2.1,30.12,NW,310,0.0,2.0,34,0.00,,,0.00,0,WeatherCatV1.12B45,2013-01-27 22:08:00,
2013-01-27 17:13:00,26.6,2.1,30.12,NNW,337,0.0,1.0,34,0.00,,,0.00,0,WeatherCatV1.12B45,2013-01-27 22:13:00,
2013-01-27 17:18:00,26.4,1.9,30.12,NNW,329,0.0,1.0,34,0.00,,,0.00,0,WeatherCatV1.12B45,2013-01-27 22:18:00,
2013-01-27 17:23:00,26.3,1.8,30.12,NNW,328,1.0,1.0,34,0.00,,,0.00,0,WeatherCatV1.12B45,2013-01-27 22:23:00,
2013-01-27 17:28:00,26.2,2.3,30.13,NNW,327,0.0,2.0,35,0.00,,,0.00,0,WeatherCatV1.12B45,2013-01-27 22:28:00,
2013-01-27 17:33:00,26.0,2.1,30.13,WNW,300,0.0,2.0,35,0.00,,,0.00,0,WeatherCatV1.12B45,2013-01-27 22:33:00,
2013-01-27 17:38:00,25.8,2.0,30.13,WNW,292,0.0,4.0,35,0.00,,,0.00,0,WeatherCatV1.12B45,2013-01-27 22:38:00,
2013-01-27 17:43:00,25.6,1.8,30.13,SW,223,0.0,2.0,35,0.00,,,0.00,0,WeatherCatV1.12B45,2013-01-27 22:43:00,
2013-01-27 17:48:00,25.5,1.1,30.14,NW,314,1.0,4.0,34,0.00,,,0.00,0,WeatherCatV1.12B45,2013-01-27 22:48:00,
2013-01-27 17:53:00,25.4,1.0,30.14,West,273,1.0,2.0,34,0.00,,,0.00,0,WeatherCatV1.12B45,2013-01-27 22:53:00,
2013-01-27 17:58:00,25.3,1.5,30.14,NNW,336,0.0,1.0,35,0.00,,,0.00,0,WeatherCatV1.12B45,2013-01-27 22:58:00,
2013-01-27 18:03:00,25.2,0.8,30.14,SSW,205,0.0,2.0,34,0.00,,,0.00,0,WeatherCatV1.12B45,2013-01-27 23:03:00,
2013-01-27 18:08:00,25.1,0.7,30.15,South,178,1.0,3.0,34,0.00,,,0.00,0,WeatherCatV1.12B45,2013-01-27 23:08:00,
2013-01-27 18:13:00,25.0,0.6,30.15,SSW,207,0.0,1.0,34,0.00,,,0.00,0,WeatherCatV1.12B45,2013-01-27 23:13:00,
2013-01-27 18:18:00,24.9,0.5,30.15,SW,229,0.0,3.0,34,0.00,,,0.00,0,WeatherCatV1.12B45,2013-01-27 23:18:00,
2013-01-27 18:23:00,24.8,0.5,30.15,WSW,257,0.0,6.0,34,0.00,,,0.00,0,WeatherCatV1.12B45,2013-01-27 23:23:00,
2013-01-27 18:28:00,24.7,0.4,30.15,WNW,300,0.0,3.0,34,0.00,,,0.00,0,WeatherCatV1.12B45,2013-01-27 23:28:00,
2013-01-27 18:33:00,24.7,-0.3,30.15,NW,323,2.0,4.0,33,0.00,,,0.00,0,WeatherCatV1.12B45,2013-01-27 23:33:00,
2013-01-27 18:38:00,24.6,-0.4,30.15,NW,307,0.0,2.0,33,0.00,,,0.00,0,WeatherCatV1.12B45,2013-01-27 23:38:00,
2013-01-27 18:43:00,24.5,-0.4,30.15,NW,319,0.0,3.0,33,0.00,,,0.00,0,WeatherCatV1.12B45,2013-01-27 23:43:00,
2013-01-27 18:48:00,24.4,-0.5,30.15,WNW,289,2.0,5.0,33,0.00,,,0.00,0,WeatherCatV1.12B45,2013-01-27 23:48:00,
2013-01-27 18:53:00,24.3,-0.6,30.15,NNW,327,0.0,4.0,33,0.00,,,0.00,0,WeatherCatV1.12B45,2013-01-27 23:53:00,
2013-01-27 18:58:00,24.3,-0.6,30.15,NW,314,0.0,4.0,33,0.00,,,0.00,0,WeatherCatV1.12B45,2013-01-27 23:58:00,
2013-01-27 19:03:00,24.2,-0.7,30.15,SW,215,1.0,3.0,33,0.00,,,0.00,0,WeatherCatV1.12B45,2013-01-28 00:03:00,
2013-01-27 19:08:00,24.1,-0.8,30.16,SW,236,0.0,5.0,33,0.00,,,0.00,0,WeatherCatV1.12B45,2013-01-28 00:08:00,
2013-01-27 19:13:00,24.0,-0.9,30.16,NNW,341,1.0,6.0,33,0.00,,,0.00,0,WeatherCatV1.12B45,2013-01-28 00:13:00,
2013-01-27 19:18:00,23.9,-1.0,30.16,NW,321,1.0,3.0,33,0.00,,,0.00,0,WeatherCatV1.12B45,2013-01-28 00:18:00,
2013-01-27 19:23:00,23.8,-1.1,30.16,WNW,286,1.0,10.0,33,0.00,,,0.00,0,WeatherCatV1.12B45,2013-01-28 00:23:00,
2013-01-27 19:28:00,23.8,-1.1,30.16,NW,311,3.0,3.0,33,0.00,,,0.00,0,WeatherCatV1.12B45,2013-01-28 00:28:00,
2013-01-27 19:33:00,23.7,-1.1,30.16,ESE,119,1.0,4.0,33,0.00,,,0.00,0,WeatherCatV1.12B45,2013-01-28 00:33:00,
2013-01-27 19:38:00,23.6,-1.2,30.16,NNW,327,2.0,2.0,33,0.00,,,0.00,0,WeatherCatV1.12B45,2013-01-28 00:38:00,
2013-01-27 19:43:00,23.5,-1.3,30.16,SW,215,0.0,3.0,33,0.00,,,0.00,0,WeatherCatV1.12B45,2013-01-28 00:43:00,
2013-01-27 19:48:00,23.4,-1.4,30.15,NW,311,0.0,7.0,33,0.00,,,0.00,0,WeatherCatV1.12B45,2013-01-28 00:48:00,
2013-01-27 19:53:00,23.4,-1.4,30.16,West,281,0.0,2.0,33,0.00,,,0.00,0,WeatherCatV1.12B45,2013-01-28 00:53:00,
2013-01-27 19:58:00,23.3,-1.5,30.16,NW,306,0.0,4.0,33,0.00,,,0.00,0,WeatherCatV1.12B45,2013-01-28 00:58:00,
2013-01-27 20:03:00,23.3,-0.9,30.16,West,280,1.0,1.0,34,0.00,,,0.00,0,WeatherCatV1.12B45,2013-01-28 01:03:00,
2013-01-27 20:08:00,23.2,-1.0,30.16,WNW,284,0.0,2.0,34,0.00,,,0.00,0,WeatherCatV1.12B45,2013-01-28 01:08:00,
2013-01-27 20:13:00,23.1,-0.4,30.16,NW,319,1.0,3.0,35,0.00,,,0.00,0,WeatherCatV1.12B45,2013-01-28 01:13:00,
2013-01-27 20:18:00,23.0,-0.5,30.16,NW,319,0.0,1.0,35,0.00,,,0.00,0,WeatherCatV1.12B45,2013-01-28 01:18:00,
2013-01-27 20:23:00,22.9,-0.6,30.16,NNW,331,1.0,5.0,35,0.00,,,0.00,0,WeatherCatV1.12B45,2013-01-28 01:23:00,
2013-01-27 20:28:00,22.8,-0.7,30.16,NW,313,2.0,3.0,35,0.00,,,0.00,0,WeatherCatV1.12B45,2013-01-28 01:28:00,
2013-01-27 20:33:00,22.7,-0.8,30.16,NW,319,0.0,2.0,35,0.00,,,0.00,0,WeatherCatV1.12B45,2013-01-28 01:33:00,
2013-01-27 20:38:00,22.5,-0.4,30.16,NW,311,0.0,1.0,36,0.00,,,0.00,0,WeatherCatV1.12B45,2013-01-28 01:38:00,
2013-01-27 20:43:00,22.4,-0.5,30.16,NW,312,0.0,1.0,36,0.00,,,0.00,0,WeatherCatV1.12B45,2013-01-28 01:43:00,
2013-01-27 20:48:00,22.2,-0.1,30.16,NW,313,0.0,2.0,37,0.00,,,0.00,0,WeatherCatV1.12B45,2013-01-28 01:48:00,
2013-01-27 20:53:00,22.1,-0.2,30.15,NW,313,1.0,1.0,37,0.00,,,0.00,0,WeatherCatV1.12B45,2013-01-28 01:53:00,
2013-01-27 20:58:00,22.0,-0.2,30.15,WSW,257,0.0,1.0,37,0.00,,,0.00,0,WeatherCatV1.12B45,2013-01-28 01:58:00,
2013-01-27 21:03:00,21.8,-0.4,30.15,West,259,0.0,1.0,37,0.00,,,0.00,0,WeatherCatV1.12B45,2013-01-28 02:03:00,
2013-01-27 21:08:00,21.7,-0.5,30.15,WNW,303,0.0,1.0,37,0.00,,,0.00,0,WeatherCatV1.12B45,2013-01-28 02:08:00,
2013-01-27 21:13:00,21.6,0.0,30.15,NW,304,0.0,1.0,38,0.00,,,0.00,0,WeatherCatV1.12B45,2013-01-28 02:13:00,
2013-01-27 21:18:00,21.5,-0.1,30.15,WNW,303,0.0,0.0,38,0.00,,,0.00,0,WeatherCatV1.12B45,2013-01-28 02:18:00,
2013-01-27 21:23:00,21.3,-0.3,30.15,NW,304,0.0,0.0,38,0.00,,,0.00,0,WeatherCatV1.12B45,2013-01-28 02:23:00,
2013-01-27 21:28:00,21.2,0.2,30.15,NW,304,0.0,2.0,39,0.00,,,0.00,0,WeatherCatV1.12B45,2013-01-28 02:28:00,
2013-01-27 21:33:00,21.1,0.1,30.16,NW,304,0.0,1.0,39,0.00,,,0.00,0,WeatherCatV1.12B45,2013-01-28 02:33:00,
2013-01-27 21:38:00,20.9,-0.1,30.16,NW,304,0.0,0.0,39,0.00,,,0.00,0,WeatherCatV1.12B45,2013-01-28 02:38:00,
2013-01-27 21:43:00,20.9,0.4,30.16,NW,304,0.0,1.0,40,0.00,,,0.00,0,WeatherCatV1.12B45,2013-01-28 02:43:00,
2013-01-27 21:48:00,20.8,0.3,30.17,NW,309,0.0,0.0,40,0.00,,,0.00,0,WeatherCatV1.12B45,2013-01-28 02:48:00,
2013-01-27 21:53:00,20.7,0.2,30.16,NW,309,0.0,0.0,40,0.00,,,0.00,0,WeatherCatV1.12B45,2013-01-28 02:53:00,
2013-01-27 21:58:00,20.6,0.1,30.16,NW,309,0.0,0.0,40,0.00,,,0.00,0,WeatherCatV1.12B45,2013-01-28 02:58:00,
2013-01-27 22:04:00,20.6,0.7,30.16,NW,309,0.0,0.0,41,0.00,,,0.00,0,WeatherCatV1.12B45,2013-01-28 03:04:00,
2013-01-27 22:09:00,20.4,0.5,30.17,NW,309,0.0,2.0,41,0.00,,,0.00,0,WeatherCatV1.12B45,2013-01-28 03:09:00,
2013-01-27 22:14:00,20.4,0.5,30.16,NW,309,0.0,0.0,41,0.00,,,0.00,0,WeatherCatV1.12B45,2013-01-28 03:14:00,
2013-01-27 22:19:00,20.3,-0.1,30.16,NW,309,0.0,0.0,40,0.00,,,0.00,0,WeatherCatV1.12B45,2013-01-28 03:19:00,
2013-01-27 22:24:00,20.1,0.2,30.17,NW,309,0.0,1.0,41,0.00,,,0.00,0,WeatherCatV1.12B45,2013-01-28 03:24:00,
2013-01-27 22:29:00,20.0,0.1,30.16,NW,309,0.0,0.0,41,0.00,,,0.00,0,WeatherCatV1.12B45,2013-01-28 03:29:00,
2013-01-27 22:34:00,19.8,-0.1,30.16,NW,309,0.0,1.0,41,0.00,,,0.00,0,WeatherCatV1.12B45,2013-01-28 03:34:00,
2013-01-27 22:39:00,19.7,0.4,30.17,NW,309,1.0,1.0,42,0.00,,,0.00,0,WeatherCatV1.12B45,2013-01-28 03:39:00,
2013-01-27 22:44:00,19.7,0.4,30.17,NW,309,0.0,1.0,42,0.00,,,0.00,0,WeatherCatV1.12B45,2013-01-28 03:44:00,
2013-01-27 22:49:00,19.5,0.7,30.17,NW,309,0.0,1.0,43,0.00,,,0.00,0,WeatherCatV1.12B45,2013-01-28 03:49:00,
2013-01-27 22:54:00,19.4,0.6,30.18,NW,309,0.0,1.0,43,0.00,,,0.00,0,WeatherCatV1.12B45,2013-01-28 03:54:00,
2013-01-27 22:59:00,19.3,1.0,30.18,NW,309,0.0,1.0,44,0.00,,,0.00,0,WeatherCatV1.12B45,2013-01-28 03:59:00,
2013-01-27 23:04:00,19.2,0.9,30.18,NW,309,0.0,1.0,44,0.00,,,0.00,0,WeatherCatV1.12B45,2013-01-28 04:04:00,
2013-01-27 23:09:00,19.1,0.8,30.18,NW,309,0.0,0.0,44,0.00,,,0.00,0,WeatherCatV1.12B45,2013-01-28 04:09:00,
2013-01-27 23:14:00,19.1,0.8,30.18,NW,309,0.0,1.0,44,0.00,,,0.00,0,WeatherCatV1.12B45,2013-01-28 04:14:00,
2013-01-27 23:19:00,19.0,0.7,30.18,NW,309,0.0,0.0,44,0.00,,,0.00,0,WeatherCatV1.12B45,2013-01-28 04:19:00,
2013-01-27 23:24:00,19.0,1.2,30.18,NW,309,0.0,0.0,45,0.00,,,0.00,0,WeatherCatV1.12B45,2013-01-28 04:24:00,
2013-01-27 23:29:00,19.0,1.2,30.18,NW,309,0.0,0.0,45,0.00,,,0.00,0,WeatherCatV1.12B45,2013-01-28 04:29:00,
2013-01-27 23:34:00,18.9,1.1,30.18,NW,309,0.0,0.0,45,0.00,,,0.00,0,WeatherCatV1.12B45,2013-01-28 04:34:00,
2013-01-27 23:39:00,18.9,1.6,30.18,NW,309,0.0,0.0,46,0.00,,,0.00,0,WeatherCatV1.12B45,2013-01-28 04:39:00,
2013-01-27 23:44:00,18.9,1.6,30.18,NW,309,1.0,1.0,46,0.00,,,0.00,0,WeatherCatV1.12B45,2013-01-28 04:44:00,
2013-01-27 23:49:00,18.9,1.6,30.17,NW,309,0.0,0.0,46,0.00,,,0.00,0,WeatherCatV1.12B45,2013-01-28 04:49:00,
2013-01-27 23:54:00,18.9,1.6,30.17,NW,309,0.0,0.0,46,0.00,,,0.00,0,WeatherCatV1.12B45,2013-01-28 04:54:00,
2013-01-27 23:59:00,18.9,1.6,30.17,NW,309,0.0,0.0,46,0.00,,,0.00,0,WeatherCatV1.12B45,2013-01-28 04:59:00,